[[{"header":{"parameterUnit":"m.s-1","parameterCategory":1,"la1":30.2991,"la2":30.254,"lo1":-89.0895,"lo2":-89.0444,"dy":0.0017,"dx":0.0017,"nx":28,"ny":28,"refTime":"2025-03-13T21:00:00:Z","depth":0,"parameterNumber":2,"parameterNumberName":"U-component_of_WINDS"},"data":[0,0,0,0,0,0,0,0,0,0,0,0,0,0,0,0,0,0,0,0,0,0,0,0,0,0,0,0,0,0,0,0,0,0,0,0,0,0,0,0,0,0,0,0,0,0,0,0,0,0,0,0,0,0,0,0,0,0,-2.3007,-2.3007,0,-2.3003,-2.3003,-2.3003,-2.2974,-2.2973,-2.2972,-2.2971,-2.2966,-2.2967,-2.2967,0,0,0,0,0,0,0,0,0,0,0,0,0,-2.299,-2.299,-2.3007,-2.3007,-2.3007,-2.3003,-2.3003,-2.3003,-2.2974,-2.2973,-2.2972,-2.2971,-2.2966,-2.2967,-2.2967,0,0,0,0,0,0,0,0,0,0,0,0,0,-2.2993,-2.2991,-2.3007,-2.2992,-2.2991,-2.3003,-2.3003,-2.3002,-2.2974,-2.2973,-2.2972,-2.2971,-2.2966,-2.2967,-2.2968,-2.2993,0,0,-2.297,-2.297,0,0,0,0,0,0,0,0,-2.2993,-2.2993,-2.2994,-2.2993,-2.2992,-2.2988,-2.2995,-2.2999,-2.2974,-2.298,-2.2971,-2.297,-2.2974,-2.2974,-2.2976,-2.2993,-2.2993,-2.297,-2.297,-2.2971,-2.2971,0,0,0,0,0,0,0,-2.2992,-2.2993,-2.3005,-2.2994,-2.2993,-2.2985,-2.2985,-2.2995,-2.2983,-2.298,-2.2977,-2.2977,-2.2973,-2.2975,-2.2975,-2.2993,-2.297,-2.2971,-2.2971,-2.2971,-2.303,-2.3031,0,0,0,0,0,0,-2.2994,-2.2993,-2.3005,-2.3005,-2.2989,-2.2986,-2.2986,-2.299,-2.2983,-2.2981,-2.2978,-2.2976,-2.2974,-2.2975,-2.2975,-2.3003,-2.2971,-2.2972,-2.2972,-2.3029,-2.303,-2.3031,0,0,0,0,0,0,-2.2994,-2.2996,-2.3006,-2.2999,-2.2999,-2.2988,-2.2993,-2.299,-2.2992,-2.2982,-2.298,-2.2982,-2.2973,-2.2974,-2.2989,-2.3003,-2.2972,-2.2973,-2.3027,-2.3029,-2.303,-2.3061,0,0,0,0,0,0,-2.2994,-2.2996,-2.3006,-2.2999,-2.3,-2.302,-2.2994,-2.2991,-2.2994,-2.2991,-2.2985,-2.2983,-2.2973,-2.2988,-2.2989,-2.3003,-2.2973,-2.3026,-2.3028,-2.303,-2.3058,-2.3063,-2.3067,0,0,0,0,0,-2.2993,-2.3015,-2.3006,-2.3008,-2.3012,-2.3021,-2.3021,-2.3008,-2.2995,-2.3004,-2.2998,-2.2983,-2.3001,-2.2989,-2.2991,-2.3005,-2.3025,-2.3027,-2.303,-2.3056,-2.3062,-2.3067,0,0,0,0,0,0,-2.3023,-2.3014,-2.3004,-2.3024,-2.3024,-2.3016,-2.3027,-2.3015,-2.3018,-2.3015,-2.3,-2.2999,-2.3015,-2.3012,-2.2999,-2.3029,-2.3011,-2.3014,-2.303,-2.3036,-2.304,-2.304,-2.2974,0,0,0,0,0,-2.3032,-2.304,-2.3031,-2.305,-2.305,-2.3039,-2.3042,-2.3033,-2.3031,-2.303,-2.3025,-2.3024,-2.3029,-2.3033,-2.3037,-2.3059,-2.3056,-2.3069,-2.3074,-2.3077,-2.3079,-2.3089,-2.3094,-2.3039,-2.3039,-2.3039,0,0,-2.3051,-2.3047,-2.3053,-2.3056,-2.3054,-2.3062,-2.3039,-2.3048,-2.3054,-2.3032,-2.3045,-2.3041,-2.3038,-2.3056,-2.3064,-2.3054,-2.3094,-2.3081,-2.3084,-2.3083,-2.3092,-2.3097,-2.3102,-2.3041,-2.304,-2.304,0,0,-2.3088,-2.3087,-2.3101,-2.31,-2.3097,-2.309,-2.3093,-2.3087,-2.3083,-2.3096,-2.3079,-2.3086,-2.3096,-2.3094,-2.3094,-2.3131,-2.3117,-2.3133,-2.3156,-2.3165,-2.3169,-2.3173,-2.3184,-2.3189,-2.3136,-2.3136,-2.3136,0,-2.3112,-2.3123,-2.311,-2.312,-2.3122,-2.3102,-2.3116,-2.3116,-2.3115,-2.3116,-2.3105,-2.3116,-2.3113,-2.313,-2.3138,-2.314,-2.3143,-2.3133,-2.317,-2.3173,-2.3177,-2.3187,-2.3191,-2.3137,-2.3137,-2.3137,-2.3137,0,-2.3151,-2.3159,-2.3171,-2.317,-2.3173,-2.3185,-2.3173,-2.3178,-2.3168,-2.3162,-2.3174,-2.3171,-2.3173,-2.3177,-2.3168,-2.3191,-2.3185,-2.3173,-2.3153,-2.3184,-2.3193,-2.3197,-2.314,-2.3139,-2.3139,-2.3138,0,0,-2.3206,-2.3197,-2.3202,-2.32,-2.3196,-2.3202,-2.3213,-2.3216,-2.3219,-2.3219,-2.3227,-2.3236,-2.3224,-2.3224,-2.3215,-2.3224,-2.325,-2.321,-2.3209,-2.3216,-2.3274,-2.3282,-2.3287,-2.3242,-2.3243,-2.3244,-2.3274,0,-2.324,-2.3258,-2.3246,-2.3266,-2.3272,-2.3254,-2.3264,-2.3262,-2.3256,-2.3261,-2.3254,-2.326,-2.3245,-2.3244,-2.3252,-2.3245,-2.3262,-2.3243,-2.3248,-2.3248,-2.3247,-2.3292,-2.3301,-2.3329,-2.3277,-2.3278,-2.3279,0,-2.3282,-2.3283,-2.3303,-2.3297,-2.3299,-2.3308,-2.3308,-2.3313,-2.331,-2.3305,-2.3306,-2.3294,-2.3304,-2.3286,-2.3298,-2.3286,-2.3288,-2.3285,-2.3286,-2.3284,-2.3264,-2.329,-2.3338,-2.3342,-2.3285,-2.3284,-2.3284,0,-2.3317,-2.3325,-2.3337,-2.3337,-2.333,-2.3336,-2.3334,-2.333,-2.3332,-2.3332,-2.3333,-2.3335,-2.3336,-2.3337,-2.3326,-2.3315,-2.3339,-2.3321,-2.3334,-2.3334,-2.3339,-2.3338,-2.3386,-2.3343,-2.3343,-2.3343,-2.3343,0,-2.3355,-2.3368,-2.3353,-2.336,-2.3373,-2.336,-2.3374,-2.3369,-2.3366,-2.3372,-2.3357,-2.3363,-2.3348,-2.3353,-2.3344,-2.3354,-2.3356,-2.3351,-2.3348,-2.3351,-2.3351,-2.335,-2.3347,-2.3344,-2.3344,-2.3344,-2.3344,0,-2.3397,-2.3387,-2.3399,-2.3392,-2.339,-2.34,-2.3393,-2.3399,-2.3393,-2.34,-2.3401,-2.339,-2.3394,-2.3384,-2.3387,-2.3381,-2.3395,-2.339,-2.3396,-2.3393,-2.3406,-2.3404,-2.3454,-2.3459,-2.3415,-2.3415,-2.3415,0,-2.342,-2.3429,-2.3423,-2.3425,-2.3423,-2.3428,-2.343,-2.3417,-2.342,-2.3417,-2.3423,-2.3426,-2.3427,-2.3434,-2.3426,-2.3428,-2.3422,-2.3439,-2.3422,-2.3424,-2.3419,-2.3418,-2.3418,-2.3442,-2.3442,-2.3443,-2.3443,0,-2.3463,-2.3458,-2.3461,-2.3462,-2.3464,-2.3464,-2.3463,-2.3466,-2.3453,-2.3456,-2.346,-2.3461,-2.3463,-2.3465,-2.3465,-2.3462,-2.345,-2.3449,-2.3452,-2.3454,-2.3456,-2.3453,-2.3403,-2.3447,-2.3447,-2.3447,-2.3446,-2.3446,-2.3495,-2.3501,-2.3497,-2.35,-2.3499,-2.3498,-2.3503,-2.3497,-2.35,-2.35,-2.3493,-2.3498,-2.3494,-2.3493,-2.3491,-2.3494,-2.3486,-2.3491,-2.3491,-2.3492,-2.3493,-2.3457,-2.3494,-2.3494,-2.3494,-2.3494,-2.3494,0,-2.3535,-2.3531,-2.3535,-2.3534,-2.3536,-2.3525,-2.3523,-2.3526,-2.353,-2.3528,-2.3529,-2.3533,-2.3535,-2.3528,-2.3529,-2.3533,-2.3527,-2.3533,-2.3532,-2.3531,-2.3501,-2.3498,-2.3537,-2.3537,-2.3537,-2.3537,-2.3537,-2.3537,-2.3556,-2.3566,-2.356,-2.3568,-2.3565,-2.3569,-2.3569,-2.3568,-2.3566,-2.357,-2.3572,-2.3567,-2.3563,-2.3563,-2.3564,-2.3562,-2.3562,-2.3569,-2.3565,-2.3537,-2.3533,-2.3529,-2.3525,-2.357,-2.357,-2.3594,-2.3594,-2.3594]},{"header":{"parameterUnit":"m.s-1","parameterCategory":1,"la1":30.2991,"la2":30.254,"lo1":-89.0895,"lo2":-89.0444,"dy":0.0017,"dx":0.0017,"nx":28,"ny":28,"refTime":"2025-03-13T21:00:00:Z","depth":0,"parameterNumber":3,"parameterNumberName":"V-component_of_WINDS"},"data":[0,0,0,0,0,0,0,0,0,0,0,0,0,0,0,0,0,0,0,0,0,0,0,0,0,0,0,0,0,0,0,0,0,0,0,0,0,0,0,0,0,0,0,0,0,0,0,0,0,0,0,0,0,0,0,0,0,0,3.1111,3.1112,0,3.122,3.1221,3.1222,3.1237,3.1236,3.1235,3.1234,3.1345,3.1349,3.1353,0,0,0,0,0,0,0,0,0,0,0,0,0,3.0916,3.0919,3.1111,3.1113,3.1114,3.122,3.1221,3.1223,3.1237,3.1236,3.1234,3.1233,3.1344,3.1349,3.1353,0,0,0,0,0,0,0,0,0,0,0,0,0,3.101,3.092,3.1111,3.1134,3.1137,3.122,3.1221,3.1223,3.1237,3.1235,3.1234,3.1232,3.1342,3.1348,3.1354,3.1422,0,0,3.1372,3.1375,0,0,0,0,0,0,0,0,3.1005,3.1017,3.1129,3.1132,3.1136,3.1213,3.1193,3.129,3.1237,3.1199,3.1233,3.1232,3.1303,3.1312,3.1336,3.1427,3.1432,3.1373,3.1376,3.1379,3.138,0,0,0,0,0,0,0,3.0998,3.1013,3.1154,3.1131,3.1135,3.1138,3.115,3.1212,3.1258,3.1202,3.1203,3.1216,3.1304,3.133,3.1338,3.1433,3.1372,3.1378,3.1381,3.1384,3.1587,3.1589,0,0,0,0,0,0,3.0987,3.1007,3.1151,3.1158,3.1065,3.1143,3.1156,3.119,3.1258,3.1266,3.1217,3.1216,3.132,3.1331,3.1342,3.1428,3.1379,3.1384,3.1388,3.1585,3.1588,3.159,0,0,0,0,0,0,3.0983,3.1,3.1146,3.1083,3.1102,3.1148,3.1186,3.1193,3.1219,3.1269,3.1277,3.1235,3.132,3.1334,3.1402,3.1432,3.1387,3.1392,3.1583,3.1586,3.1589,3.1598,0,0,0,0,0,0,3.0977,3.0998,3.1025,3.1083,3.1105,3.1205,3.1188,3.1196,3.1229,3.1229,3.1288,3.1296,3.132,3.1393,3.1408,3.1439,3.1397,3.1581,3.1585,3.1588,3.1596,3.1601,3.1606,0,0,0,0,0,3.097,3.1023,3.1026,3.1043,3.1139,3.1206,3.1219,3.1245,3.1231,3.1258,3.129,3.1294,3.1425,3.14,3.1417,3.145,3.1579,3.1584,3.1588,3.1593,3.16,3.1606,0,0,0,0,0,0,3.0967,3.1031,3.1035,3.1108,3.1152,3.1209,3.1244,3.125,3.1299,3.1297,3.1326,3.134,3.1407,3.1435,3.1406,3.152,3.1501,3.1509,3.15,3.1506,3.1511,3.1505,3.1402,0,0,0,0,0,3.0975,3.1024,3.1077,3.1136,3.1158,3.1197,3.1227,3.1243,3.1289,3.1308,3.1345,3.139,3.1442,3.1475,3.1525,3.1598,3.1613,3.163,3.1635,3.1638,3.1646,3.1688,3.1697,3.1603,3.1603,3.1603,0,0,3.0991,3.1032,3.1062,3.1137,3.1173,3.1224,3.1212,3.1266,3.1305,3.1316,3.1384,3.1412,3.1464,3.1536,3.1569,3.1562,3.1674,3.1644,3.1647,3.1652,3.1694,3.1702,3.171,3.1606,3.1606,3.1605,0,0,3.1049,3.1084,3.1138,3.1174,3.1227,3.1253,3.1265,3.1321,3.1341,3.1409,3.1419,3.1464,3.1552,3.1589,3.1619,3.1689,3.1696,3.1704,3.1732,3.1773,3.1781,3.1787,3.1815,3.1824,3.1711,3.1711,3.1711,0,3.1063,3.114,3.1165,3.1219,3.1252,3.1264,3.1319,3.1353,3.142,3.1443,3.1432,3.1543,3.1579,3.166,3.1677,3.17,3.1717,3.1699,3.1777,3.1785,3.1791,3.1818,3.1827,3.1712,3.1712,3.1712,3.1712,0,3.1156,3.1209,3.1246,3.1312,3.1348,3.1403,3.1436,3.147,3.1482,3.1508,3.1578,3.162,3.168,3.17,3.1712,3.1783,3.1777,3.1771,3.1754,3.1801,3.1826,3.1836,3.1713,3.1713,3.1713,3.1712,0,0,3.1217,3.1294,3.1308,3.1338,3.1397,3.1439,3.1494,3.1552,3.1582,3.1627,3.1675,3.1748,3.1743,3.1778,3.1794,3.1829,3.1885,3.182,3.1822,3.1833,3.1968,3.1974,3.1985,3.1888,3.189,3.1891,3.1965,0,3.1284,3.1382,3.1405,3.149,3.154,3.1551,3.1599,3.164,3.1666,3.1712,3.174,3.1793,3.1782,3.1803,3.1838,3.187,3.1913,3.1865,3.1934,3.1936,3.1924,3.1998,3.2004,3.2072,3.1974,3.1976,3.1977,0,3.1375,3.1423,3.1512,3.1566,3.1588,3.163,3.1686,3.1729,3.1777,3.1793,3.1831,3.1843,3.1901,3.1878,3.1958,3.1926,3.1955,3.1974,3.1978,3.1988,3.1962,3.2013,3.2093,3.2105,3.1992,3.1991,3.199,0,3.1414,3.15,3.1565,3.159,3.1653,3.1683,3.1711,3.1757,3.179,3.1838,3.186,3.1914,3.1944,3.1985,3.2012,3.1993,3.2092,3.207,3.2108,3.2108,3.2131,3.213,3.2221,3.2145,3.2145,3.2144,3.2144,0,3.1488,3.1543,3.1584,3.1625,3.1686,3.1711,3.1772,3.18,3.184,3.1887,3.1898,3.1941,3.1973,3.202,3.2041,3.2106,3.2119,3.2134,3.214,3.2135,3.2134,3.2157,3.2155,3.2147,3.2147,3.2146,3.2146,0,3.1544,3.1573,3.1645,3.1698,3.1713,3.1757,3.1803,3.1842,3.1867,3.1925,3.1941,3.198,3.2037,3.2066,3.2137,3.2151,3.2225,3.2226,3.2209,3.2212,3.225,3.2247,3.2361,3.2379,3.2288,3.2289,3.2289,0,3.1591,3.1633,3.1691,3.1723,3.1751,3.1801,3.1836,3.1861,3.1896,3.1953,3.1986,3.2043,3.2091,3.2181,3.2216,3.227,3.2275,3.2311,3.2283,3.2278,3.2279,3.2277,3.2283,3.2317,3.2318,3.2319,3.2319,0,3.1672,3.1684,3.1732,3.1786,3.1826,3.187,3.1913,3.1938,3.1971,3.2009,3.2067,3.2104,3.2176,3.2233,3.229,3.2319,3.2326,3.2327,3.2339,3.2337,3.2327,3.2335,3.2226,3.2325,3.2325,3.2324,3.2324,3.2324,3.1727,3.1766,3.1812,3.1866,3.1901,3.194,3.1981,3.201,3.2059,3.212,3.2131,3.2193,3.2239,3.2316,3.2346,3.2395,3.2388,3.2405,3.241,3.2414,3.2418,3.2316,3.2405,3.2405,3.2405,3.2405,3.2404,0,3.1811,3.1841,3.189,3.195,3.1992,3.1992,3.204,3.2076,3.213,3.2172,3.2218,3.2284,3.234,3.2378,3.2435,3.2467,3.2471,3.2481,3.2481,3.2487,3.2419,3.2405,3.2476,3.2476,3.2476,3.2476,3.2476,3.2476,3.186,3.1927,3.1944,3.2027,3.2057,3.2118,3.2145,3.2182,3.2216,3.229,3.2335,3.2359,3.2401,3.246,3.2511,3.2521,3.2542,3.2552,3.2563,3.2499,3.2492,3.2485,3.2471,3.2556,3.2556,3.2627,3.2628,3.2629]}]]